Location: Tel Aviv
(32.0670°N, 34.7670°E)
Time: 02:17:31
(UTC+02:00)

Transit 4A - Pass Details

Date: 10 December 2023
Orbit: 869 x 974 km, 66.8° (Epoch: 23 February)

Event Time Altitude Azimuth Distance (km) Brightness Sun altitude
Rises 17:12:50 0° 182° (S) 3,646 11.3 -7.8°
Reaches altitude 10° 17:15:33 10° 174° (S) 2,706 10.5 -8.3°
Maximum altitude 17:21:20 38° 108° (ESE) 1,442 8.6 -9.5°
Drops below altitude 10° 17:27:06 10° 43° (NE) 2,708 9.8 -10.6°
Enters shadow 17:27:14 - 42° (NE) 2,755 9.8 -10.7°
